20040728,000015,1304671,34.235000,-119.579333,18.168,33.398,NaN,NaN
20040728,000045,1304701,34.234000,-119.578167,18.170,33.398,NaN,NaN
20040728,000114,1304730,34.233000,-119.576833,18.172,33.398,NaN,NaN
20040728,000144,1304760,34.232000,-119.575500,18.160,33.400,NaN,NaN
20040728,000214,1304790,34.231000,-119.574333,18.168,33.401,NaN,NaN
20040728,000245,1304821,34.229833,-119.573000,18.178,33.403,NaN,NaN
20040728,000315,1304851,34.228833,-119.571667,18.192,33.404,NaN,NaN
20040728,000344,1304880,34.227833,-119.570500,18.208,33.404,NaN,NaN
20040728,000414,1304910,34.226667,-119.569167,18.180,33.409,NaN,NaN
20040728,000445,1304941,34.225667,-119.567833,18.188,33.408,NaN,NaN
20040728,000515,1304971,34.224667,-119.566500,18.194,33.409,NaN,NaN
20040728,000544,1305000,34.223667,-119.565167,18.229,33.409,NaN,NaN
20040728,000614,1305030,34.222667,-119.563833,18.234,33.408,NaN,NaN
20040728,000644,1305060,34.221500,-119.562667,18.227,33.407,NaN,NaN
20040728,000715,1305091,34.220500,-119.561333,18.216,33.406,NaN,NaN
20040728,000745,1305121,34.219500,-119.560167,18.199,33.404,NaN,NaN
20040728,000814,1305150,34.218333,-119.558833,18.199,33.401,NaN,NaN
20040728,000844,1305180,34.217333,-119.557500,18.189,33.397,NaN,NaN
20040728,000915,1305211,34.216333,-119.556167,18.191,33.395,NaN,NaN
20040728,000945,1305241,34.215167,-119.554833,18.221,33.392,NaN,NaN
20040728,001014,1305270,34.214167,-119.553667,18.256,33.394,NaN,NaN
20040728,001044,1305300,34.213167,-119.552333,18.283,33.397,NaN,NaN
20040728,001115,1305331,34.212167,-119.551000,18.277,33.399,NaN,NaN
20040728,001145,1305361,34.211000,-119.549667,18.272,33.403,NaN,NaN
20040728,001215,1305391,34.210000,-119.548333,18.223,33.400,NaN,NaN
20040728,001244,1305420,34.209000,-119.547000,18.237,33.398,NaN,NaN
20040728,001314,1305450,34.207833,-119.545833,18.290,33.398,NaN,NaN
20040728,001345,1305481,34.206833,-119.544500,18.316,33.399,NaN,NaN
20040728,001415,1305511,34.205833,-119.543167,18.354,33.399,NaN,NaN
20040728,001444,1305540,34.204833,-119.541833,18.397,33.398,NaN,NaN
20040728,001514,1305570,34.203667,-119.540667,18.434,33.398,NaN,NaN
20040728,001544,1305600,34.202667,-119.539333,18.465,33.399,NaN,NaN
20040728,001615,1305631,34.201667,-119.538000,18.482,33.398,NaN,NaN
20040728,001645,1305661,34.200500,-119.536667,18.495,33.398,NaN,NaN
20040728,001714,1305690,34.199500,-119.535333,18.490,33.399,NaN,NaN
20040728,001744,1305720,34.198333,-119.534000,18.483,33.399,NaN,NaN
20040728,001815,1305751,34.197333,-119.532833,18.469,33.398,NaN,NaN
20040728,001845,1305781,34.196333,-119.531500,18.442,33.400,NaN,NaN
20040728,001914,1305810,34.195167,-119.530167,18.440,33.397,NaN,NaN
20040728,001944,1305840,34.194167,-119.528833,18.445,33.397,NaN,NaN
20040728,002014,1305870,34.193167,-119.527667,18.442,33.397,NaN,NaN
20040728,002045,1305901,34.192000,-119.526333,18.446,33.397,NaN,NaN
20040728,002115,1305931,34.191000,-119.525000,18.458,33.397,NaN,NaN
20040728,002144,1305960,34.190000,-119.523667,18.459,33.400,NaN,NaN
20040728,002214,1305990,34.188833,-119.522500,18.435,33.400,NaN,NaN
20040728,002245,1306021,34.187833,-119.521167,18.466,33.400,NaN,NaN
20040728,002315,1306051,34.186833,-119.520000,18.489,33.400,NaN,NaN
20040728,002344,1306080,34.185833,-119.518667,18.490,33.404,NaN,NaN
20040728,002414,1306110,34.184833,-119.517500,18.437,33.406,NaN,NaN
20040728,002444,1306140,34.183833,-119.516167,18.395,33.408,NaN,NaN
20040728,002515,1306171,34.182833,-119.515000,18.411,33.406,NaN,NaN
20040728,002545,1306201,34.181667,-119.513667,18.410,33.407,NaN,NaN
20040728,002614,1306230,34.180667,-119.512500,18.374,33.411,NaN,NaN
20040728,002644,1306260,34.179667,-119.511167,18.282,33.413,NaN,NaN
20040728,002715,1306291,34.178667,-119.510000,18.190,33.410,NaN,NaN
20040728,002745,1306321,34.178167,-119.508500,18.169,33.411,NaN,NaN
20040728,002814,1306350,34.178167,-119.506833,18.132,33.410,NaN,NaN
20040728,002844,1306380,34.178000,-119.505167,18.144,33.406,NaN,NaN
20040728,002914,1306410,34.177500,-119.503500,18.185,33.405,NaN,NaN
20040728,002945,1306441,34.177167,-119.501833,18.209,33.405,NaN,NaN
20040728,003015,1306471,34.176833,-119.500167,18.262,33.404,NaN,NaN
20040728,003044,1306500,34.176333,-119.498500,18.320,33.403,NaN,NaN
20040728,003114,1306530,34.176000,-119.496833,18.377,33.403,NaN,NaN
20040728,003145,1306561,34.175500,-119.495000,18.445,33.404,NaN,NaN
20040728,003215,1306591,34.175167,-119.493333,18.530,33.400,NaN,NaN
20040728,003244,1306620,34.174833,-119.491667,18.650,33.397,NaN,NaN
20040728,003314,1306650,34.174500,-119.489833,18.731,33.401,NaN,NaN
20040728,003345,1306681,34.174000,-119.488167,18.762,33.402,NaN,NaN
20040728,003415,1306711,34.173667,-119.486500,18.731,33.403,NaN,NaN
20040728,003445,1306741,34.173333,-119.484667,18.714,33.402,NaN,NaN
20040728,003514,1306770,34.172833,-119.483000,18.725,33.400,NaN,NaN
20040728,003544,1306800,34.172500,-119.481333,18.714,33.400,NaN,NaN
20040728,003615,1306831,34.172167,-119.479667,18.706,33.399,NaN,NaN
20040728,003645,1306861,34.171667,-119.477833,18.713,33.398,NaN,NaN
20040728,003714,1306890,34.171333,-119.476167,18.713,33.398,NaN,NaN
20040728,003744,1306920,34.170833,-119.474333,18.727,33.397,NaN,NaN
20040728,003814,1306950,34.170500,-119.472667,18.708,33.400,NaN,NaN
20040728,003845,1306981,34.170167,-119.470833,18.669,33.398,NaN,NaN
20040728,003915,1307011,34.169667,-119.469167,18.644,33.399,NaN,NaN
20040728,003944,1307040,34.169333,-119.467333,18.639,33.397,NaN,NaN
20040728,004014,1307070,34.169000,-119.465500,18.660,33.397,NaN,NaN
20040728,004045,1307101,34.168500,-119.463833,18.677,33.397,NaN,NaN
20040728,004115,1307131,34.168000,-119.462167,18.690,33.397,NaN,NaN
20040728,004144,1307160,34.167667,-119.460333,18.710,33.397,NaN,NaN
20040728,004214,1307190,34.167167,-119.458667,18.718,33.398,NaN,NaN
20040728,004244,1307220,34.166833,-119.456833,18.730,33.397,NaN,NaN
20040728,004315,1307251,34.166500,-119.455000,18.757,33.396,NaN,NaN
20040728,004345,1307281,34.166000,-119.453333,18.781,33.398,NaN,NaN
20040728,004414,1307310,34.165667,-119.451500,18.811,33.398,NaN,NaN
20040728,004444,1307340,34.165333,-119.449667,18.820,33.399,NaN,NaN
20040728,004515,1307371,34.165000,-119.448000,18.829,33.399,NaN,NaN
20040728,004545,1307401,34.164500,-119.446167,18.835,33.400,NaN,NaN
20040728,004614,1307430,34.164167,-119.444500,18.823,33.400,NaN,NaN
20040728,004644,1307460,34.163833,-119.442667,18.808,33.401,NaN,NaN
20040728,004714,1307490,34.163333,-119.441000,18.770,33.400,NaN,NaN
20040728,004745,1307521,34.163000,-119.439167,18.751,33.400,NaN,NaN
20040728,004815,1307551,34.162667,-119.437500,18.737,33.400,NaN,NaN
20040728,004844,1307580,34.162167,-119.435667,18.726,33.398,NaN,NaN
20040728,004914,1307610,34.161833,-119.434000,18.680,33.401,NaN,NaN
20040728,004945,1307641,34.161333,-119.432167,18.644,33.399,NaN,NaN
20040728,005015,1307671,34.161000,-119.430500,18.641,33.398,NaN,NaN
20040728,005044,1307700,34.160667,-119.428667,18.632,33.399,NaN,NaN
20040728,005114,1307730,34.160167,-119.426833,18.603,33.398,NaN,NaN
20040728,005144,1307760,34.159833,-119.425167,18.579,33.399,NaN,NaN
20040728,005215,1307791,34.159500,-119.423333,18.587,33.398,NaN,NaN
20040728,005245,1307821,34.159000,-119.421667,18.578,33.399,NaN,NaN
20040728,005314,1307850,34.158500,-119.419833,18.564,33.399,NaN,NaN
20040728,005344,1307880,34.158167,-119.418167,18.571,33.397,NaN,NaN
20040728,005415,1307911,34.157833,-119.416333,18.582,33.398,NaN,NaN
20040728,005445,1307941,34.157333,-119.414667,18.601,33.397,NaN,NaN
20040728,005514,1307970,34.157000,-119.412833,18.598,33.398,NaN,NaN
20040728,005544,1308000,34.156667,-119.411000,18.589,33.398,NaN,NaN
20040728,005615,1308031,34.156167,-119.409333,18.576,33.399,NaN,NaN
20040728,005645,1308061,34.155833,-119.407500,18.560,33.397,NaN,NaN
20040728,005715,1308091,34.155333,-119.405833,18.563,33.396,NaN,NaN
20040728,005744,1308120,34.155000,-119.404000,18.573,33.397,NaN,NaN
20040728,005814,1308150,34.154500,-119.402167,18.578,33.396,NaN,NaN
20040728,005845,1308181,34.154167,-119.400500,18.589,33.397,NaN,NaN
20040728,005915,1308211,34.153667,-119.398667,18.597,33.397,NaN,NaN
20040728,005944,1308240,34.153167,-119.397000,18.600,33.396,NaN,NaN
20040728,010014,1308270,34.152833,-119.395167,18.599,33.396,NaN,NaN
20040728,010044,1308300,34.152500,-119.393333,18.588,33.397,NaN,NaN
20040728,010115,1308331,34.152000,-119.391667,18.568,33.396,NaN,NaN
20040728,010145,1308361,34.151500,-119.389833,18.548,33.396,NaN,NaN
20040728,010214,1308390,34.151167,-119.388167,18.519,33.397,NaN,NaN
20040728,010244,1308420,34.150667,-119.386333,18.482,33.398,NaN,NaN
20040728,010315,1308451,34.150333,-119.384500,18.422,33.397,NaN,NaN
20040728,010345,1308481,34.149833,-119.382667,18.401,33.395,NaN,NaN
20040728,010414,1308510,34.149333,-119.381000,18.369,33.395,NaN,NaN
20040728,010444,1308540,34.148667,-119.379333,18.350,33.394,NaN,NaN
20040728,010514,1308570,34.148000,-119.377667,18.357,33.393,NaN,NaN
20040728,010545,1308601,34.147333,-119.376167,18.373,33.392,NaN,NaN
20040728,010615,1308631,34.146500,-119.374500,18.368,33.393,NaN,NaN
20040728,010644,1308660,34.145833,-119.372833,18.397,33.392,NaN,NaN
20040728,010714,1308690,34.145000,-119.371167,18.390,33.395,NaN,NaN
20040728,010745,1308721,34.144333,-119.369500,18.397,33.393,NaN,NaN
20040728,010815,1308751,34.143667,-119.367833,18.403,33.395,NaN,NaN
20040728,010844,1308780,34.143000,-119.366167,18.383,33.395,NaN,NaN
20040728,010914,1308810,34.142333,-119.364500,18.380,33.395,NaN,NaN
20040728,010944,1308840,34.141500,-119.362833,18.363,33.395,NaN,NaN
20040728,011015,1308871,34.140833,-119.361167,18.364,33.394,NaN,NaN
20040728,011045,1308901,34.140167,-119.359500,18.389,33.393,NaN,NaN
20040728,011114,1308930,34.139500,-119.357833,18.396,33.395,NaN,NaN
20040728,011144,1308960,34.138667,-119.356167,18.359,33.396,NaN,NaN
20040728,011215,1308991,34.138000,-119.354500,18.339,33.397,NaN,NaN
20040728,011245,1309021,34.137167,-119.352833,18.303,33.397,NaN,NaN
20040728,011314,1309050,34.136500,-119.351167,18.287,33.396,NaN,NaN
20040728,011344,1309080,34.135667,-119.349500,18.260,33.399,NaN,NaN
20040728,011414,1309110,34.135000,-119.347833,18.244,33.399,NaN,NaN
20040728,011445,1309141,34.134167,-119.346167,18.220,33.399,NaN,NaN
20040728,011515,1309171,34.133500,-119.344500,18.213,33.399,NaN,NaN
20040728,011544,1309200,34.132833,-119.342833,18.183,33.401,NaN,NaN
20040728,011614,1309230,34.132167,-119.341167,18.162,33.402,NaN,NaN
20040728,011645,1309261,34.131333,-119.339500,18.146,33.402,NaN,NaN
20040728,011715,1309291,34.130667,-119.337833,18.104,33.406,NaN,NaN
20040728,011744,1309320,34.129833,-119.336167,18.063,33.410,NaN,NaN
20040728,011814,1309350,34.129167,-119.334667,18.044,33.412,NaN,NaN
20040728,011845,1309381,34.128333,-119.333000,18.036,33.416,NaN,NaN
20040728,011915,1309411,34.127500,-119.331333,18.031,33.422,NaN,NaN
20040728,011945,1309441,34.126833,-119.329667,18.025,33.429,NaN,NaN
20040728,012014,1309470,34.126167,-119.328000,18.022,33.433,NaN,NaN
20040728,012044,1309500,34.125333,-119.326333,18.020,33.435,NaN,NaN
20040728,012115,1309531,34.124667,-119.324833,18.024,33.438,NaN,NaN
20040728,012145,1309561,34.124000,-119.323000,18.055,33.438,NaN,NaN
20040728,012214,1309590,34.123333,-119.321333,18.097,33.440,NaN,NaN
20040728,012244,1309620,34.122667,-119.319667,18.120,33.441,NaN,NaN
20040728,012314,1309650,34.122000,-119.318167,18.146,33.441,NaN,NaN
20040728,012345,1309681,34.121167,-119.316500,18.162,33.441,NaN,NaN
20040728,012415,1309711,34.120500,-119.314833,18.163,33.443,NaN,NaN
20040728,012444,1309740,34.119833,-119.313167,18.144,33.444,NaN,NaN
20040728,012514,1309770,34.119000,-119.311500,18.129,33.444,NaN,NaN
20040728,012545,1309801,34.118333,-119.309833,18.108,33.445,NaN,NaN
20040728,012615,1309831,34.117667,-119.308167,18.102,33.443,NaN,NaN
20040728,012644,1309860,34.116833,-119.306667,18.105,33.444,NaN,NaN
20040728,012714,1309890,34.116167,-119.305000,18.095,33.444,NaN,NaN
20040728,012744,1309920,34.115500,-119.303333,18.070,33.445,NaN,NaN
20040728,012815,1309951,34.114667,-119.301667,18.051,33.442,NaN,NaN
20040728,012845,1309981,34.114000,-119.300000,18.047,33.444,NaN,NaN
20040728,012914,1310010,34.113333,-119.298333,18.033,33.444,NaN,NaN
20040728,012944,1310040,34.112500,-119.296833,17.999,33.443,NaN,NaN
20040728,013015,1310071,34.111833,-119.295167,18.001,33.441,NaN,NaN
20040728,013045,1310101,34.111167,-119.293500,18.007,33.441,NaN,NaN
20040728,013114,1310130,34.110333,-119.292000,18.000,33.441,NaN,NaN
20040728,013144,1310160,34.109833,-119.290333,18.008,33.440,NaN,NaN
20040728,013214,1310190,34.109000,-119.288667,18.019,33.441,NaN,NaN
20040728,013245,1310221,34.108333,-119.287167,18.029,33.442,NaN,NaN
20040728,013315,1310251,34.107667,-119.285500,18.043,33.443,NaN,NaN
20040728,013344,1310280,34.106833,-119.283833,18.076,33.444,NaN,NaN
20040728,013414,1310310,34.106333,-119.282167,18.118,33.444,NaN,NaN
20040728,013445,1310341,34.105667,-119.280667,18.149,33.445,NaN,NaN
20040728,013515,1310371,34.104833,-119.279167,18.168,33.444,NaN,NaN
20040728,013544,1310400,34.104167,-119.277500,18.185,33.445,NaN,NaN
20040728,013614,1310430,34.103500,-119.275833,18.206,33.444,NaN,NaN
20040728,013644,1310460,34.102833,-119.274167,18.219,33.444,NaN,NaN
20040728,013715,1310491,34.102167,-119.272667,18.219,33.443,NaN,NaN
20040728,013745,1310521,34.101500,-119.271000,18.229,33.442,NaN,NaN
20040728,013814,1310550,34.100833,-119.269333,18.235,33.440,NaN,NaN
20040728,013844,1310580,34.100167,-119.267833,18.242,33.439,NaN,NaN
20040728,013915,1310611,34.099500,-119.266167,18.236,33.438,NaN,NaN
20040728,013945,1310641,34.098667,-119.264500,18.180,33.440,NaN,NaN
20040728,014014,1310670,34.098000,-119.262833,18.158,33.436,NaN,NaN
20040728,014044,1310700,34.097333,-119.261167,18.165,33.433,NaN,NaN
20040728,014115,1310731,34.096667,-119.259667,18.171,33.432,NaN,NaN
20040728,014145,1310761,34.095833,-119.258000,18.175,33.431,NaN,NaN
20040728,014215,1310791,34.095167,-119.256333,18.168,33.430,NaN,NaN
20040728,014244,1310820,34.094500,-119.254833,18.184,33.429,NaN,NaN
20040728,014314,1310850,34.093833,-119.253167,18.228,33.427,NaN,NaN
20040728,014345,1310881,34.093167,-119.251500,18.289,33.427,NaN,NaN
20040728,014415,1310911,34.092500,-119.249833,18.370,33.430,NaN,NaN
20040728,014444,1310940,34.091833,-119.248167,18.431,33.435,NaN,NaN
20040728,014514,1310970,34.091167,-119.246500,18.487,33.432,NaN,NaN
20040728,014544,1311000,34.090500,-119.245000,18.541,33.429,NaN,NaN
20040728,014615,1311031,34.089833,-119.243333,18.593,33.429,NaN,NaN
20040728,014645,1311061,34.089333,-119.241667,18.646,33.427,NaN,NaN
20040728,014714,1311090,34.088500,-119.240000,18.699,33.424,NaN,NaN
20040728,014744,1311120,34.087833,-119.238333,18.759,33.422,NaN,NaN
20040728,014815,1311151,34.087167,-119.236667,18.797,33.421,NaN,NaN
20040728,014845,1311181,34.086333,-119.235000,18.823,33.418,NaN,NaN
20040728,014914,1311210,34.085667,-119.233333,18.833,33.415,NaN,NaN
20040728,014944,1311240,34.084833,-119.231667,18.830,33.411,NaN,NaN
20040728,015014,1311270,34.084167,-119.230167,18.835,33.407,NaN,NaN
20040728,015045,1311301,34.083500,-119.228500,18.841,33.405,NaN,NaN
20040728,015115,1311331,34.082667,-119.226833,18.839,33.406,NaN,NaN
20040728,015144,1311360,34.081833,-119.225167,18.822,33.406,NaN,NaN
20040728,015214,1311390,34.081167,-119.223500,18.769,33.406,NaN,NaN
20040728,015245,1311421,34.080500,-119.221833,18.737,33.406,NaN,NaN
20040728,015315,1311451,34.079667,-119.220333,18.672,33.404,NaN,NaN
20040728,015344,1311480,34.079000,-119.218667,18.600,33.406,NaN,NaN
20040728,015414,1311510,34.078167,-119.217000,18.521,33.407,NaN,NaN
20040728,015444,1311540,34.077500,-119.215333,18.478,33.407,NaN,NaN
20040728,015515,1311571,34.076667,-119.213667,18.465,33.407,NaN,NaN
20040728,015545,1311601,34.076000,-119.212167,18.457,33.407,NaN,NaN
20040728,015614,1311630,34.075167,-119.210500,18.445,33.409,NaN,NaN
20040728,015644,1311660,34.074500,-119.208833,18.451,33.409,NaN,NaN
20040728,015715,1311691,34.073833,-119.207167,18.479,33.408,NaN,NaN
20040728,015745,1311721,34.073000,-119.205667,18.489,33.409,NaN,NaN
20040728,015814,1311750,34.072167,-119.204000,18.456,33.414,NaN,NaN
20040728,015844,1311780,34.071500,-119.202333,18.477,33.410,NaN,NaN
20040728,015914,1311810,34.070667,-119.200833,18.466,33.413,NaN,NaN
20040728,015945,1311841,34.069833,-119.199167,18.462,33.414,NaN,NaN
20040728,020015,1311871,34.069167,-119.197667,18.488,33.414,NaN,NaN
20040728,020044,1311900,34.068333,-119.196000,18.503,33.414,NaN,NaN
20040728,020114,1311930,34.067500,-119.194333,18.486,33.417,NaN,NaN
20040728,020145,1311961,34.066833,-119.192833,18.482,33.417,NaN,NaN
20040728,020215,1311991,34.066000,-119.191167,18.495,33.417,NaN,NaN
20040728,020244,1312020,34.065167,-119.189500,18.488,33.421,NaN,NaN
20040728,020314,1312050,34.064500,-119.188000,18.488,33.422,NaN,NaN
20040728,020345,1312081,34.063667,-119.186333,18.475,33.424,NaN,NaN
20040728,020415,1312111,34.062833,-119.184667,18.456,33.426,NaN,NaN
20040728,020445,1312141,34.062167,-119.183167,18.436,33.427,NaN,NaN
20040728,020514,1312170,34.061333,-119.181500,18.428,33.427,NaN,NaN
20040728,020544,1312200,34.060500,-119.180000,18.449,33.427,NaN,NaN
20040728,020615,1312231,34.059833,-119.178333,18.464,33.430,NaN,NaN
20040728,020645,1312261,34.059000,-119.176667,18.456,33.432,NaN,NaN
20040728,020714,1312290,34.058333,-119.175167,18.460,33.433,NaN,NaN
20040728,020744,1312320,34.057500,-119.173500,18.469,33.436,NaN,NaN
20040728,020814,1312350,34.056667,-119.172000,18.472,33.436,NaN,NaN
20040728,020845,1312381,34.055833,-119.170333,18.480,33.436,NaN,NaN
20040728,020915,1312411,34.055167,-119.168667,18.468,33.435,NaN,NaN
20040728,020944,1312440,34.054333,-119.167167,18.457,33.433,NaN,NaN
20040728,021014,1312470,34.053667,-119.165500,18.464,33.430,NaN,NaN
20040728,021045,1312501,34.052833,-119.163833,18.464,33.429,NaN,NaN
20040728,021115,1312531,34.052167,-119.162333,18.485,33.428,NaN,NaN
20040728,021144,1312560,34.051333,-119.160667,18.495,33.427,NaN,NaN
20040728,021214,1312590,34.050667,-119.159000,18.492,33.426,NaN,NaN
20040728,021244,1312620,34.050000,-119.157333,18.478,33.423,NaN,NaN
20040728,021315,1312651,34.049167,-119.155833,18.475,33.423,NaN,NaN
20040728,021345,1312681,34.048500,-119.154167,18.459,33.421,NaN,NaN
20040728,021414,1312710,34.047667,-119.152500,18.451,33.420,NaN,NaN
20040728,021444,1312740,34.047000,-119.150833,18.442,33.419,NaN,NaN
20040728,021515,1312771,34.046333,-119.149167,18.429,33.418,NaN,NaN
20040728,021545,1312801,34.045500,-119.147500,18.414,33.417,NaN,NaN
20040728,021614,1312830,34.044833,-119.146000,18.405,33.415,NaN,NaN
20040728,021644,1312860,34.044167,-119.144167,18.415,33.414,NaN,NaN
20040728,021714,1312890,34.043833,-119.142500,18.431,33.413,NaN,NaN
20040728,021745,1312921,34.043500,-119.140667,18.445,33.413,NaN,NaN
20040728,021815,1312951,34.043000,-119.138833,18.471,33.411,NaN,NaN
20040728,021844,1312980,34.042833,-119.137000,18.485,33.412,NaN,NaN
20040728,021914,1313010,34.042500,-119.135167,18.490,33.413,NaN,NaN
20040728,021945,1313041,34.042167,-119.133500,18.494,33.412,NaN,NaN
20040728,022015,1313071,34.041833,-119.131667,18.507,33.412,NaN,NaN
20040728,022044,1313100,34.041500,-119.129833,18.529,33.412,NaN,NaN
20040728,022114,1313130,34.041000,-119.128000,18.547,33.410,NaN,NaN
20040728,022144,1313160,34.040667,-119.126167,18.572,33.408,NaN,NaN
20040728,022215,1313191,34.040333,-119.124333,18.610,33.404,NaN,NaN
20040728,022245,1313221,34.040000,-119.122500,18.664,33.401,NaN,NaN
20040728,022314,1313250,34.039833,-119.120667,18.721,33.400,NaN,NaN
20040728,022344,1313280,34.039500,-119.118833,18.772,33.397,NaN,NaN
20040728,022415,1313311,34.039167,-119.117000,18.815,33.398,NaN,NaN
20040728,022445,1313341,34.038833,-119.115167,18.839,33.400,NaN,NaN
20040728,022514,1313370,34.038667,-119.113333,18.852,33.403,NaN,NaN
20040728,022544,1313400,34.038333,-119.111500,18.842,33.406,NaN,NaN
20040728,022615,1313431,34.038000,-119.109667,18.819,33.409,NaN,NaN
20040728,022645,1313461,34.037833,-119.107833,18.729,33.414,NaN,NaN
20040728,022715,1313491,34.037500,-119.106000,18.644,33.419,NaN,NaN
20040728,022744,1313520,34.037167,-119.104167,18.589,33.418,NaN,NaN
20040728,022814,1313550,34.037000,-119.102333,18.561,33.418,NaN,NaN
20040728,022845,1313581,34.036667,-119.100500,18.592,33.417,NaN,NaN
20040728,022915,1313611,34.036500,-119.098500,18.609,33.418,NaN,NaN
20040728,022944,1313640,34.036167,-119.096667,18.568,33.418,NaN,NaN
20040728,023014,1313670,34.036000,-119.094833,18.491,33.414,NaN,NaN
20040728,023044,1313700,34.035833,-119.093000,18.376,33.413,NaN,NaN
20040728,023115,1313731,34.035500,-119.091167,18.168,33.410,NaN,NaN
20040728,023145,1313761,34.035333,-119.089333,17.975,33.410,NaN,NaN
20040728,023214,1313790,34.035000,-119.087500,17.790,33.401,NaN,NaN
20040728,023244,1313820,34.034833,-119.085667,17.675,33.394,NaN,NaN
20040728,023315,1313851,34.034667,-119.083833,17.598,33.387,NaN,NaN
20040728,023345,1313881,34.034333,-119.082000,17.560,33.382,NaN,NaN
20040728,023414,1313910,34.034167,-119.080167,17.564,33.380,NaN,NaN
20040728,023444,1313940,34.034000,-119.078500,17.572,33.380,NaN,NaN
20040728,023514,1313970,34.033833,-119.076667,17.581,33.380,NaN,NaN
20040728,023545,1314001,34.033500,-119.074833,17.592,33.380,NaN,NaN
20040728,023615,1314031,34.033333,-119.073167,17.601,33.380,NaN,NaN
20040728,023644,1314060,34.033000,-119.071333,17.615,33.380,NaN,NaN
20040728,023714,1314090,34.032833,-119.069500,17.627,33.380,NaN,NaN
20040728,023745,1314121,34.032667,-119.067667,17.624,33.381,NaN,NaN
20040728,023815,1314151,34.032333,-119.066000,17.604,33.381,NaN,NaN
20040728,023844,1314180,34.032167,-119.064167,17.600,33.380,NaN,NaN
20040728,023914,1314210,34.032000,-119.062333,17.591,33.381,NaN,NaN
20040728,023944,1314240,34.031667,-119.060500,17.572,33.379,NaN,NaN
20040728,024015,1314271,34.031500,-119.058667,17.564,33.379,NaN,NaN
20040728,024045,1314301,34.031500,-119.057000,17.536,33.379,NaN,NaN
20040728,024114,1314330,34.031167,-119.055167,17.511,33.377,NaN,NaN
20040728,024144,1314360,34.031000,-119.053333,17.484,33.378,NaN,NaN
20040728,024215,1314391,34.030833,-119.051500,17.452,33.377,NaN,NaN
20040728,024245,1314421,34.030667,-119.049667,17.419,33.374,NaN,NaN
20040728,024314,1314450,34.030500,-119.047833,17.358,33.375,NaN,NaN
20040728,024344,1314480,34.030333,-119.046000,17.336,33.371,NaN,NaN
20040728,024414,1314510,34.030167,-119.044333,17.285,33.370,NaN,NaN
20040728,024445,1314541,34.030000,-119.042500,17.243,33.367,NaN,NaN
20040728,024515,1314571,34.029833,-119.040667,17.182,33.366,NaN,NaN
20040728,024544,1314600,34.029667,-119.038833,17.091,33.365,NaN,NaN
20040728,024614,1314630,34.029500,-119.037000,17.054,33.364,NaN,NaN
20040728,024645,1314661,34.029333,-119.035167,16.964,33.364,NaN,NaN
20040728,024715,1314691,34.029167,-119.033500,16.907,33.363,NaN,NaN
20040728,024744,1314720,34.029000,-119.031667,16.819,33.361,NaN,NaN
20040728,024814,1314750,34.028833,-119.029833,16.748,33.356,NaN,NaN
20040728,024845,1314781,34.028500,-119.028000,16.726,33.353,NaN,NaN
20040728,024915,1314811,34.028333,-119.026333,16.730,33.355,NaN,NaN
20040728,024945,1314841,34.028167,-119.024500,16.721,33.353,NaN,NaN
20040728,025014,1314870,34.028000,-119.022667,16.694,33.353,NaN,NaN
20040728,025044,1314900,34.027833,-119.020833,16.686,33.352,NaN,NaN
20040728,025115,1314931,34.027667,-119.019167,16.667,33.353,NaN,NaN
20040728,025145,1314961,34.027500,-119.017333,16.668,33.351,NaN,NaN
20040728,025214,1314990,34.027333,-119.015500,16.634,33.352,NaN,NaN
20040728,025244,1315020,34.027000,-119.013667,16.537,33.349,NaN,NaN
20040728,025314,1315050,34.026833,-119.012000,16.539,33.344,NaN,NaN